[[{"header":{"parameterUnit":"m.s-1","parameterCategory":1,"la1":30.2991,"la2":30.254,"lo1":-89.0895,"lo2":-89.0444,"dy":0.0017,"dx":0.0017,"nx":28,"ny":28,"refTime":"2025-03-18T03:00:00:Z","depth":0,"parameterNumber":2,"parameterNumberName":"U-component_of_WINDS"},"data":[0,0,0,0,0,0,0,0,0,0,0,0,0,0,0,0,0,0,0,0,0,0,0,0,0,0,0,0,0,0,0,0,0,0,0,0,0,0,0,0,0,0,0,0,0,0,0,0,0,0,0,0,0,0,0,0,0,0,-1.7557,-1.7558,0,-1.76,-1.7601,-1.7601,-1.7613,-1.7613,-1.7613,-1.7612,-1.7658,-1.7659,-1.7661,0,0,0,0,0,0,0,0,0,0,0,0,0,-1.7487,-1.7488,-1.7557,-1.7558,-1.7558,-1.76,-1.7601,-1.7602,-1.7613,-1.7613,-1.7613,-1.7612,-1.7657,-1.7659,-1.7661,0,0,0,0,0,0,0,0,0,0,0,0,0,-1.7523,-1.7489,-1.7557,-1.7569,-1.7571,-1.76,-1.7601,-1.7602,-1.7613,-1.7613,-1.7612,-1.7612,-1.7657,-1.7659,-1.7661,-1.7682,0,0,-1.7668,-1.7669,0,0,0,0,0,0,0,0,-1.7521,-1.7525,-1.7567,-1.7568,-1.757,-1.7601,-1.7593,-1.7629,-1.7613,-1.7597,-1.7612,-1.7612,-1.7639,-1.7643,-1.7652,-1.7684,-1.7686,-1.7668,-1.7669,-1.767,-1.7671,0,0,0,0,0,0,0,-1.7518,-1.7524,-1.7574,-1.7567,-1.7569,-1.7573,-1.7578,-1.76,-1.762,-1.7598,-1.7599,-1.7604,-1.764,-1.765,-1.7653,-1.7687,-1.7668,-1.767,-1.7671,-1.7672,-1.7741,-1.7741,0,0,0,0,0,0,-1.7513,-1.7521,-1.7573,-1.7576,-1.7544,-1.7575,-1.758,-1.7591,-1.762,-1.7624,-1.7605,-1.7605,-1.7646,-1.7651,-1.7655,-1.7682,-1.767,-1.7672,-1.7673,-1.774,-1.7741,-1.7742,0,0,0,0,0,0,-1.7512,-1.7518,-1.7571,-1.7549,-1.7556,-1.7576,-1.7589,-1.7592,-1.7602,-1.7624,-1.7628,-1.7611,-1.7646,-1.7652,-1.7676,-1.7684,-1.7673,-1.7675,-1.774,-1.7741,-1.7741,-1.7737,0,0,0,0,0,0,-1.751,-1.7517,-1.7525,-1.7549,-1.7557,-1.759,-1.759,-1.7594,-1.7606,-1.7606,-1.7631,-1.7635,-1.7646,-1.7672,-1.7678,-1.7687,-1.7677,-1.7739,-1.774,-1.7741,-1.7736,-1.7737,-1.7738,0,0,0,0,0,-1.7507,-1.7522,-1.7525,-1.7531,-1.7567,-1.7591,-1.7596,-1.7608,-1.7606,-1.7614,-1.7629,-1.7634,-1.7682,-1.7675,-1.7681,-1.7691,-1.7739,-1.774,-1.7741,-1.7736,-1.7737,-1.7738,0,0,0,0,0,0,-1.7498,-1.7525,-1.7529,-1.7551,-1.7569,-1.7593,-1.7603,-1.7609,-1.7628,-1.7627,-1.7643,-1.7648,-1.7672,-1.7684,-1.7675,-1.7714,-1.7711,-1.7713,-1.7705,-1.7706,-1.7707,-1.7703,-1.7679,0,0,0,0,0,-1.7498,-1.7515,-1.7538,-1.7556,-1.7564,-1.7582,-1.7593,-1.7602,-1.7621,-1.7628,-1.7644,-1.7663,-1.7683,-1.7695,-1.7714,-1.7738,-1.7745,-1.7748,-1.7749,-1.775,-1.7752,-1.7767,-1.7769,-1.7746,-1.7746,-1.7745,0,0,-1.7499,-1.7516,-1.7526,-1.7554,-1.7569,-1.7587,-1.7588,-1.7607,-1.7621,-1.7631,-1.7655,-1.7668,-1.769,-1.7714,-1.7726,-1.7725,-1.776,-1.7752,-1.7752,-1.7753,-1.7768,-1.7771,-1.7773,-1.7746,-1.7746,-1.7746,0,0,-1.7511,-1.7525,-1.7541,-1.7556,-1.7578,-1.7591,-1.7595,-1.7618,-1.7627,-1.7651,-1.766,-1.7677,-1.771,-1.7726,-1.7738,-1.7758,-1.7763,-1.7764,-1.7768,-1.7783,-1.7785,-1.7787,-1.7794,-1.7797,-1.7766,-1.7766,-1.7766,0,-1.7509,-1.7536,-1.7549,-1.7568,-1.7581,-1.7591,-1.7609,-1.7623,-1.765,-1.7659,-1.7658,-1.7701,-1.7716,-1.7745,-1.775,-1.776,-1.7766,-1.776,-1.7783,-1.7785,-1.7787,-1.7795,-1.7797,-1.7766,-1.7766,-1.7766,-1.7766,0,-1.7534,-1.7552,-1.7563,-1.7589,-1.7603,-1.7621,-1.7639,-1.7652,-1.766,-1.7673,-1.7698,-1.7717,-1.7741,-1.7749,-1.7757,-1.778,-1.7778,-1.778,-1.7778,-1.7789,-1.7796,-1.7799,-1.7765,-1.7765,-1.7765,-1.7766,0,0,-1.7539,-1.7573,-1.7577,-1.759,-1.7616,-1.7631,-1.765,-1.7673,-1.7684,-1.7704,-1.7721,-1.775,-1.7752,-1.7766,-1.7776,-1.7789,-1.7804,-1.7789,-1.779,-1.7792,-1.7832,-1.783,-1.7833,-1.7809,-1.7809,-1.781,-1.783,0,-1.7553,-1.7587,-1.7601,-1.7629,-1.7647,-1.7658,-1.7675,-1.7694,-1.7707,-1.7725,-1.774,-1.776,-1.7761,-1.777,-1.7783,-1.78,-1.7813,-1.7798,-1.7826,-1.7826,-1.7819,-1.7837,-1.7835,-1.7854,-1.7833,-1.7834,-1.7834,0,-1.7574,-1.7594,-1.7623,-1.7648,-1.7657,-1.7671,-1.7695,-1.7712,-1.7734,-1.7742,-1.7759,-1.7769,-1.7791,-1.7788,-1.7819,-1.7809,-1.7821,-1.7831,-1.7832,-1.7835,-1.7831,-1.7841,-1.786,-1.7863,-1.7839,-1.7838,-1.7838,0,-1.7576,-1.7609,-1.7632,-1.7642,-1.7672,-1.7682,-1.7695,-1.7717,-1.773,-1.7751,-1.7761,-1.7784,-1.7797,-1.7815,-1.7832,-1.7827,-1.7862,-1.786,-1.7871,-1.787,-1.7877,-1.7876,-1.7898,-1.7885,-1.7885,-1.7885,-1.7885,0,-1.759,-1.7608,-1.7633,-1.7646,-1.7667,-1.7684,-1.7704,-1.7718,-1.7738,-1.7756,-1.7767,-1.7784,-1.7804,-1.7824,-1.7837,-1.7862,-1.7868,-1.7876,-1.7879,-1.7875,-1.7874,-1.7883,-1.7882,-1.7885,-1.7885,-1.7885,-1.7885,0,-1.7595,-1.7612,-1.7637,-1.7664,-1.7671,-1.7685,-1.7708,-1.7723,-1.7737,-1.776,-1.7766,-1.7788,-1.7812,-1.7831,-1.7862,-1.7871,-1.7897,-1.79,-1.7889,-1.7891,-1.7901,-1.79,-1.793,-1.7935,-1.7918,-1.7918,-1.7918,0,-1.7603,-1.7617,-1.7645,-1.7658,-1.7671,-1.769,-1.7705,-1.7722,-1.7737,-1.7764,-1.7775,-1.78,-1.7821,-1.7859,-1.7878,-1.7903,-1.7907,-1.7916,-1.7911,-1.7906,-1.7908,-1.7907,-1.7909,-1.7916,-1.7916,-1.7917,-1.7917,0,-1.7616,-1.7624,-1.7644,-1.7667,-1.7683,-1.7702,-1.7722,-1.7732,-1.7753,-1.7769,-1.7793,-1.7809,-1.7842,-1.7866,-1.7893,-1.7908,-1.7916,-1.7918,-1.7922,-1.7918,-1.7911,-1.7915,-1.7891,-1.7917,-1.7917,-1.7917,-1.7917,-1.7917,-1.7623,-1.7637,-1.7659,-1.7681,-1.7697,-1.7715,-1.7731,-1.7747,-1.7768,-1.7795,-1.7804,-1.783,-1.7853,-1.789,-1.7905,-1.7926,-1.7927,-1.7932,-1.7934,-1.7935,-1.7935,-1.7908,-1.7931,-1.7931,-1.7931,-1.7931,-1.7931,0,-1.7637,-1.7652,-1.7672,-1.7699,-1.7717,-1.7723,-1.7745,-1.776,-1.7782,-1.7803,-1.7823,-1.7852,-1.7877,-1.7899,-1.7925,-1.7938,-1.7943,-1.7944,-1.7944,-1.7947,-1.7932,-1.7927,-1.794,-1.794,-1.794,-1.794,-1.794,-1.794,-1.7647,-1.767,-1.7681,-1.7713,-1.7729,-1.7753,-1.7766,-1.7783,-1.78,-1.7832,-1.7852,-1.7866,-1.7889,-1.7917,-1.794,-1.7946,-1.7955,-1.7956,-1.7963,-1.7949,-1.7948,-1.7947,-1.7941,-1.7958,-1.7958,-1.7976,-1.7976,-1.7977]},{"header":{"parameterUnit":"m.s-1","parameterCategory":1,"la1":30.2991,"la2":30.254,"lo1":-89.0895,"lo2":-89.0444,"dy":0.0017,"dx":0.0017,"nx":28,"ny":28,"refTime":"2025-03-18T03:00:00:Z","depth":0,"parameterNumber":3,"parameterNumberName":"V-component_of_WINDS"},"data":[0,0,0,0,0,0,0,0,0,0,0,0,0,0,0,0,0,0,0,0,0,0,0,0,0,0,0,0,0,0,0,0,0,0,0,0,0,0,0,0,0,0,0,0,0,0,0,0,0,0,0,0,0,0,0,0,0,0,5.6085,5.6085,0,5.6157,5.6158,5.6158,5.6179,5.6178,5.6178,5.6177,5.6247,5.6249,5.6251,0,0,0,0,0,0,0,0,0,0,0,0,0,5.5962,5.5964,5.6084,5.6085,5.6086,5.6157,5.6158,5.6159,5.6179,5.6178,5.6178,5.6177,5.6246,5.6249,5.6252,0,0,0,0,0,0,0,0,0,0,0,0,0,5.6022,5.5964,5.6084,5.6105,5.6107,5.6156,5.6158,5.6159,5.6179,5.6178,5.6177,5.6177,5.6245,5.6249,5.6252,5.6284,0,0,5.6262,5.6263,0,0,0,0,0,0,0,0,5.6019,5.6027,5.6101,5.6104,5.6107,5.6158,5.614,5.6201,5.6179,5.6151,5.6177,5.6177,5.6218,5.6223,5.6238,5.6287,5.629,5.6262,5.6264,5.6266,5.6267,0,0,0,0,0,0,0,5.6015,5.6024,5.6113,5.6102,5.6105,5.611,5.6118,5.6151,5.6187,5.6154,5.6156,5.6164,5.6219,5.6235,5.624,5.6291,5.6262,5.6265,5.6267,5.6269,5.6373,5.6374,0,0,0,0,0,0,5.6007,5.602,5.6111,5.6115,5.606,5.6112,5.6121,5.6142,5.6187,5.6193,5.6164,5.6165,5.6229,5.6236,5.6242,5.6284,5.6266,5.6269,5.6271,5.6373,5.6373,5.6374,0,0,0,0,0,0,5.6005,5.6015,5.6108,5.6068,5.608,5.6115,5.6138,5.6144,5.616,5.6195,5.6201,5.6174,5.6229,5.6237,5.6274,5.6287,5.627,5.6273,5.6372,5.6373,5.6374,5.6368,0,0,0,0,0,0,5.6001,5.6014,5.6027,5.6068,5.6082,5.6139,5.6139,5.6146,5.6166,5.6167,5.6205,5.6211,5.6229,5.6269,5.6278,5.6291,5.6276,5.6371,5.6372,5.6374,5.6367,5.6369,5.637,0,0,0,0,0,5.5997,5.6021,5.6028,5.6039,5.61,5.614,5.6148,5.617,5.6167,5.618,5.6203,5.621,5.6284,5.6273,5.6283,5.6297,5.637,5.6372,5.6373,5.6367,5.6369,5.637,0,0,0,0,0,0,5.5978,5.6027,5.6035,5.6074,5.6103,5.6144,5.6161,5.6171,5.62,5.62,5.6224,5.6233,5.6268,5.6286,5.6273,5.6332,5.6327,5.6331,5.6319,5.6321,5.6323,5.6317,5.6279,0,0,0,0,0,5.5979,5.6009,5.605,5.608,5.6095,5.6125,5.6144,5.6158,5.6189,5.6201,5.6226,5.6255,5.6285,5.6304,5.6333,5.637,5.6379,5.6385,5.6387,5.6388,5.6391,5.6413,5.6417,5.638,5.638,5.638,0,0,5.5981,5.6011,5.6028,5.6077,5.6102,5.6132,5.6135,5.6166,5.6189,5.6205,5.6242,5.6262,5.6295,5.6333,5.6351,5.6349,5.6403,5.639,5.6391,5.6393,5.6416,5.6419,5.6422,5.6381,5.6381,5.6381,0,0,5.5999,5.6025,5.6054,5.6079,5.6117,5.6138,5.6145,5.6184,5.6199,5.6237,5.625,5.6277,5.6328,5.6352,5.637,5.6401,5.6408,5.6409,5.6417,5.6439,5.6442,5.6444,5.6456,5.646,5.6412,5.6412,5.6412,0,5.5996,5.6043,5.6067,5.6099,5.6121,5.6139,5.6169,5.6191,5.6236,5.625,5.6248,5.6314,5.6337,5.6382,5.639,5.6404,5.6413,5.6405,5.644,5.6442,5.6445,5.6457,5.6461,5.6412,5.6412,5.6412,5.6412,0,5.6038,5.607,5.6089,5.6134,5.6158,5.6188,5.6217,5.6238,5.6251,5.6271,5.6311,5.634,5.6377,5.6388,5.64,5.6435,5.6433,5.6435,5.6431,5.6448,5.646,5.6464,5.6412,5.6412,5.6412,5.6412,0,0,5.6045,5.6106,5.6112,5.6134,5.6178,5.6203,5.6234,5.6272,5.629,5.6321,5.6348,5.6392,5.6395,5.6416,5.6431,5.645,5.6474,5.645,5.6451,5.6454,5.6515,5.6514,5.6518,5.6479,5.648,5.6481,5.6513,0,5.607,5.6128,5.6152,5.6199,5.623,5.6249,5.6277,5.6306,5.6327,5.6355,5.6377,5.6409,5.641,5.6423,5.6443,5.6466,5.6486,5.6464,5.6504,5.6506,5.6496,5.6524,5.6522,5.6551,5.6517,5.6518,5.6518,0,5.6106,5.614,5.619,5.6233,5.6247,5.6271,5.6309,5.6336,5.637,5.6384,5.6409,5.6423,5.6457,5.6451,5.6497,5.6482,5.65,5.6514,5.6516,5.6521,5.6513,5.653,5.656,5.6565,5.6525,5.6525,5.6524,0,5.6108,5.6165,5.6204,5.6222,5.6272,5.6289,5.631,5.6344,5.6366,5.6398,5.6413,5.6448,5.6467,5.6494,5.6518,5.6511,5.6563,5.6558,5.6575,5.6574,5.6585,5.6584,5.6619,5.6595,5.6595,5.6595,5.6595,0,5.6133,5.6164,5.6206,5.6229,5.6264,5.6292,5.6325,5.6348,5.6378,5.6406,5.6424,5.645,5.6479,5.6508,5.6527,5.6563,5.6572,5.6583,5.6588,5.6582,5.6581,5.6594,5.6593,5.6596,5.6596,5.6596,5.6596,0,5.6141,5.617,5.6214,5.6259,5.6271,5.6295,5.6333,5.6356,5.6379,5.6414,5.6424,5.6458,5.6494,5.652,5.6566,5.6578,5.6618,5.6622,5.6607,5.6609,5.6625,5.6623,5.667,5.6678,5.6648,5.6649,5.6649,0,5.6155,5.618,5.6228,5.6249,5.6271,5.6304,5.6328,5.6356,5.6379,5.6421,5.644,5.6477,5.6509,5.6565,5.6594,5.6629,5.6635,5.6649,5.664,5.6634,5.6636,5.6634,5.6637,5.665,5.665,5.665,5.665,0,5.6178,5.6192,5.6226,5.6265,5.6293,5.6325,5.6357,5.6373,5.6406,5.6432,5.647,5.6494,5.6542,5.658,5.6618,5.6639,5.6651,5.6653,5.6659,5.6653,5.6644,5.665,5.6611,5.6652,5.6651,5.6651,5.6651,5.6651,5.619,5.6214,5.6252,5.629,5.6317,5.6347,5.6372,5.6399,5.6432,5.6474,5.6489,5.6528,5.6563,5.6617,5.6638,5.6669,5.6669,5.6677,5.6679,5.6681,5.6681,5.6639,5.6676,5.6676,5.6676,5.6676,5.6676,0,5.6215,5.6242,5.6276,5.6321,5.6351,5.6361,5.6397,5.6421,5.6456,5.6489,5.652,5.6565,5.6601,5.6634,5.6672,5.669,5.6696,5.6699,5.6698,5.6703,5.6679,5.6671,5.6694,5.6694,5.6694,5.6694,5.6694,5.6694,5.6231,5.6272,5.6291,5.6346,5.6372,5.6412,5.6432,5.646,5.6487,5.6536,5.6567,5.6589,5.6622,5.6663,5.6697,5.6705,5.6719,5.672,5.673,5.6707,5.6705,5.6703,5.6695,5.6723,5.6723,5.6752,5.6752,5.6753]}]]